TimeCDT,TemperatureF,Dew PointF,Humidity,Sea Level PressureIn,VisibilityMPH,Wind Direction,Wind SpeedMPH,Gust SpeedMPH,PrecipitationIn,Events,Conditions,WindDirDegrees,DateUTC
12:13 AM,71.6,66.2,83,29.88,10.0,Calm,Calm,-,N/A,,Scattered Clouds,0,2013-08-27 05:13:00
12:33 AM,69.8,66.2,88,29.89,10.0,Calm,Calm,-,N/A,,Mostly Cloudy,0,2013-08-27 05:33:00
12:53 AM,69.8,66.2,88,29.88,10.0,Calm,Calm,-,N/A,,Scattered Clouds,0,2013-08-27 05:53:00
1:13 AM,69.8,66.2,88,29.89,10.0,Calm,Calm,-,N/A,,Clear,0,2013-08-27 06:13:00
1:33 AM,69.8,66.2,88,29.88,10.0,Calm,Calm,-,N/A,,Clear,0,2013-08-27 06:33:00
1:53 AM,68.0,64.4,88,29.88,10.0,Calm,Calm,-,N/A,,Clear,0,2013-08-27 06:53:00
2:13 AM,66.2,64.4,94,29.87,2.5,Calm,Calm,-,N/A,,Clear,0,2013-08-27 07:13:00
2:33 AM,66.2,62.6,88,29.87,3.0,Calm,Calm,-,N/A,,Clear,0,2013-08-27 07:33:00
2:53 AM,64.4,62.6,94,29.86,1.0,Calm,Calm,-,N/A,,Mist,0,2013-08-27 07:53:00
3:13 AM,64.4,62.6,94,29.87,0.5,Calm,Calm,-,N/A,Fog,Fog,0,2013-08-27 08:13:00
3:33 AM,64.4,62.6,94,29.87,1.5,Calm,Calm,-,N/A,,Mostly Cloudy,0,2013-08-27 08:33:00
3:53 AM,62.6,60.8,94,29.87,0.8,Calm,Calm,-,N/A,,Mist,0,2013-08-27 08:53:00
4:13 AM,62.6,60.8,94,29.87,0.5,Calm,Calm,-,N/A,Fog,Fog,0,2013-08-27 09:13:00
4:33 AM,62.6,60.8,94,29.87,0.8,Calm,Calm,-,N/A,,Mostly Cloudy,0,2013-08-27 09:33:00
4:53 AM,60.8,60.8,100,29.87,0.5,Calm,Calm,-,N/A,Fog,Fog,0,2013-08-27 09:53:00
5:13 AM,60.8,59.0,94,29.88,1.0,Calm,Calm,-,N/A,,Overcast,0,2013-08-27 10:13:00
5:33 AM,60.8,59.0,94,29.88,0.2,Calm,Calm,-,N/A,Fog,Fog,0,2013-08-27 10:33:00
5:53 AM,60.8,59.0,94,29.88,0.5,Calm,Calm,-,N/A,Fog,Fog,0,2013-08-27 10:53:00
6:13 AM,60.8,57.2,88,29.89,0.2,Calm,Calm,-,N/A,Fog,Fog,0,2013-08-27 11:13:00
6:33 AM,59.0,57.2,94,29.89,0.5,Calm,Calm,-,N/A,Fog,Fog,0,2013-08-27 11:33:00
6:53 AM,60.8,57.2,88,29.90,0.2,Calm,Calm,-,N/A,Fog,Fog,0,2013-08-27 11:53:00
7:13 AM,60.8,57.2,88,29.91,0.2,Calm,Calm,-,N/A,Fog,Fog,0,2013-08-27 12:13:00
7:33 AM,62.6,60.8,94,29.91,0.2,Calm,Calm,-,N/A,Fog,Fog,0,2013-08-27 12:33:00
7:53 AM,64.4,62.6,94,29.90,0.5,Calm,Calm,-,N/A,Fog,Fog,0,2013-08-27 12:53:00
8:13 AM,66.2,64.4,94,29.91,10.0,Calm,Calm,-,N/A,,Scattered Clouds,0,2013-08-27 13:13:00
8:33 AM,69.8,66.2,88,29.91,10.0,Calm,Calm,-,N/A,,Clear,0,2013-08-27 13:33:00
8:53 AM,69.8,68.0,94,29.91,10.0,Calm,Calm,-,N/A,,Clear,0,2013-08-27 13:53:00
9:13 AM,71.6,69.8,94,29.90,10.0,Calm,Calm,-,N/A,,Clear,0,2013-08-27 14:13:00
9:33 AM,73.4,71.6,94,29.90,10.0,ENE,3.5,-,N/A,,Clear,70,2013-08-27 14:33:00
9:53 AM,75.2,69.8,83,29.91,10.0,Calm,Calm,-,N/A,,Clear,0,2013-08-27 14:53:00
10:13 AM,77.0,69.8,78,29.91,10.0,Calm,Calm,-,N/A,,Clear,0,2013-08-27 15:13:00
10:33 AM,78.8,69.8,74,29.92,10.0,Calm,Calm,-,N/A,,Clear,0,2013-08-27 15:33:00
10:53 AM,80.6,69.8,70,29.92,10.0,Calm,Calm,-,N/A,,Clear,0,2013-08-27 15:53:00
11:13 AM,82.4,69.8,66,29.92,10.0,NE,3.5,-,N/A,,Clear,50,2013-08-27 16:13:00
11:33 AM,82.4,68.0,62,29.92,10.0,Calm,Calm,-,N/A,,Clear,0,2013-08-27 16:33:00
11:53 AM,82.4,69.8,66,29.92,10.0,Calm,Calm,-,N/A,,Clear,0,2013-08-27 16:53:00
12:13 PM,82.4,68.0,62,29.91,10.0,Calm,Calm,-,N/A,,Clear,0,2013-08-27 17:13:00
12:33 PM,84.2,68.0,58,29.91,10.0,Calm,Calm,-,N/A,,Clear,0,2013-08-27 17:33:00
12:53 PM,84.2,68.0,58,29.91,10.0,Calm,Calm,-,N/A,,Clear,0,2013-08-27 17:53:00
1:13 PM,86.0,68.0,55,29.90,10.0,Calm,Calm,-,N/A,,Scattered Clouds,0,2013-08-27 18:13:00
1:33 PM,86.0,66.2,51,29.90,10.0,Calm,Calm,-,N/A,,Scattered Clouds,0,2013-08-27 18:33:00
1:53 PM,84.2,66.2,55,29.90,10.0,Calm,Calm,-,N/A,,Clear,0,2013-08-27 18:53:00
2:13 PM,87.8,66.2,49,29.90,10.0,Calm,Calm,-,N/A,,Clear,0,2013-08-27 19:13:00
2:33 PM,87.8,64.4,46,29.90,10.0,NE,3.5,-,N/A,,Clear,40,2013-08-27 19:33:00
2:53 PM,87.8,64.4,46,29.90,10.0,Calm,Calm,-,N/A,,Clear,0,2013-08-27 19:53:00
3:13 PM,89.6,64.4,43,29.90,10.0,Calm,Calm,-,N/A,,Clear,0,2013-08-27 20:13:00
3:33 PM,89.6,64.4,43,29.90,10.0,Calm,Calm,-,N/A,,Clear,0,2013-08-27 20:33:00
3:53 PM,89.6,64.4,43,29.90,10.0,Calm,Calm,-,N/A,,Clear,0,2013-08-27 20:53:00
4:13 PM,87.8,62.6,43,29.90,10.0,Calm,Calm,-,N/A,,Clear,0,2013-08-27 21:13:00
4:33 PM,87.8,60.8,40,29.90,10.0,NNE,5.8,-,N/A,,Clear,30,2013-08-27 21:33:00
4:53 PM,89.6,60.8,38,29.90,10.0,Calm,Calm,-,N/A,,Clear,0,2013-08-27 21:53:00
5:13 PM,89.6,59.0,36,29.91,10.0,Calm,Calm,-,N/A,,Clear,0,2013-08-27 22:13:00
5:33 PM,87.8,60.8,40,29.91,10.0,North,4.6,-,N/A,,Clear,350,2013-08-27 22:33:00
5:53 PM,87.8,60.8,40,29.92,10.0,Calm,Calm,-,N/A,,Clear,0,2013-08-27 22:53:00
6:13 PM,87.8,60.8,40,29.92,10.0,North,3.5,-,N/A,,Clear,350,2013-08-27 23:13:00
6:33 PM,86.0,62.6,45,29.92,10.0,Calm,Calm,-,N/A,,Clear,0,2013-08-27 23:33:00
6:53 PM,82.4,62.6,51,29.92,10.0,Calm,Calm,-,N/A,,Clear,0,2013-08-27 23:53:00
7:13 PM,80.6,64.4,58,29.92,10.0,North,3.5,-,N/A,,Clear,10,2013-08-28 00:13:00
7:33 PM,77.0,64.4,65,29.92,10.0,Calm,Calm,-,N/A,,Clear,0,2013-08-28 00:33:00
7:53 PM,75.2,66.2,73,29.92,10.0,Calm,Calm,-,N/A,,Clear,0,2013-08-28 00:53:00
8:13 PM,71.6,66.2,83,29.93,10.0,Calm,Calm,-,N/A,,Clear,0,2013-08-28 01:13:00
8:33 PM,71.6,66.2,83,29.93,10.0,Calm,Calm,-,N/A,,Clear,0,2013-08-28 01:33:00
8:53 PM,69.8,66.2,88,29.94,10.0,Calm,Calm,-,N/A,,Clear,0,2013-08-28 01:53:00
9:13 PM,68.0,64.4,88,29.94,10.0,Calm,Calm,-,N/A,,Clear,0,2013-08-28 02:13:00
9:33 PM,68.0,64.4,88,29.94,10.0,Calm,Calm,-,N/A,,Clear,0,2013-08-28 02:33:00
9:53 PM,66.2,64.4,94,29.95,7.0,Calm,Calm,-,N/A,,Clear,0,2013-08-28 02:53:00
10:13 PM,66.2,64.4,94,29.95,10.0,Calm,Calm,-,N/A,,Clear,0,2013-08-28 03:13:00
10:33 PM,66.2,62.6,88,29.95,10.0,Calm,Calm,-,N/A,,Clear,0,2013-08-28 03:33:00
10:53 PM,64.4,62.6,94,29.97,10.0,Calm,Calm,-,N/A,,Clear,0,2013-08-28 03:53:00
11:13 PM,64.4,62.6,94,29.97,7.0,Calm,Calm,-,N/A,,Clear,0,2013-08-28 04:13:00
11:33 PM,64.4,62.6,94,29.97,5.0,Calm,Calm,-,N/A,,Clear,0,2013-08-28 04:33:00